Date String (YYYY-MM-DD hh:mm:ss) UTC,Instrument flags,Ambient pressure (hPa),Sample flow (lpm),Bypass flow (lpm),Sample temperature (°C),Ambient temperature (°C),ASC tube jacket temperature (°C),LED temperature (°C),Box temperature (°C),Sample RH (%),Span deviation,Mass concentration (μg/m³),Mass concentration (μg/m³),Mass concentration (μg/m³)
DateTimeUTC,F1_M11,P_M11,Q1_M11,Q2_M11,T1_M11,T2_M11,T3_M11,T4_M11,T5_M11,U1_M11,ZSPAN_M11,X2_M11,X0_M11,X1_M11
2022-03-10 10:00:00,,0822.6,5.00,0.00,22.2,22.0,00.0,31.1,24.0,05.2,0000.0,0004.15,0006.46,0003.94
2022-03-10 10:01:00,,0822.5,5.00,0.00,22.2,21.7,00.0,31.1,23.9,05.2,0000.0,0004.15,0006.49,0003.94
2022-03-10 10:02:00,,0822.5,4.99,0.00,22.1,21.4,00.0,31.1,23.8,05.2,0000.0,0004.16,0006.66,0003.93
2022-03-10 10:03:00,,0822.5,5.00,0.00,22.1,21.2,00.0,31.1,23.7,05.2,0000.0,0004.15,0006.57,0003.93
2022-03-10 10:04:00,,0822.6,4.99,0.00,22.0,21.1,00.0,31.1,23.7,05.2,0000.0,0004.13,0006.26,0003.92
2022-03-10 10:05:00,,0822.5,5.02,0.00,22.0,20.9,00.0,31.1,23.6,05.2,0000.0,0004.10,0005.43,0003.91
2022-03-10 10:06:00,,0822.5,5.01,0.00,22.0,21.2,00.0,31.1,23.6,05.2,0000.0,0004.12,0005.50,0003.92
2022-03-10 10:07:00,,0822.6,4.99,0.00,22.1,22.1,00.0,31.1,23.9,05.2,0000.0,0004.12,0005.46,0003.93
2022-03-10 10:08:00,,0822.5,5.02,0.00,22.2,22.8,00.0,31.1,24.1,05.2,0000.0,0004.11,0005.44,0003.93
2022-03-10 10:09:00,,0822.6,4.99,0.00,22.3,22.8,00.0,31.1,24.2,05.1,0000.0,0004.12,0005.51,0003.92
2022-03-10 10:10:00,,0822.5,4.99,0.00,22.3,22.5,00.0,31.2,24.2,05.1,0000.0,0004.13,0005.54,0003.93
2022-03-10 10:11:00,,0822.5,5.01,0.00,22.3,22.1,00.0,31.2,24.1,05.1,0000.0,0004.17,0005.77,0003.94
2022-03-10 10:12:00,,0822.6,5.02,0.00,22.2,21.8,00.0,31.2,24.0,05.1,0000.0,0004.20,0005.80,0003.94
2022-03-10 10:13:00,,0822.5,4.99,0.00,22.2,21.6,00.0,31.1,23.9,05.1,0000.0,0004.19,0005.69,0003.94
2022-03-10 10:14:00,,0822.5,4.99,0.00,22.2,21.4,00.0,31.1,23.9,05.1,0000.0,0004.18,0005.69,0003.94
2022-03-10 10:15:00,,0822.5,5.01,0.00,22.1,21.2,00.0,31.1,23.8,05.2,0000.0,0004.23,0005.90,0003.96
2022-03-10 10:16:00,,0822.5,4.98,0.00,22.1,21.0,00.0,31.1,23.7,05.2,0000.0,0004.27,0006.08,0003.97
2022-03-10 10:17:00,,0822.6,5.01,0.00,22.0,20.8,00.0,31.1,23.6,05.2,0000.0,0004.24,0005.93,0003.97
2022-03-10 10:18:00,,0822.6,5.00,0.00,22.0,21.4,00.0,31.1,23.7,05.2,0000.0,0004.25,0006.53,0003.97
2022-03-10 10:19:00,,0822.6,4.99,0.00,22.1,22.2,00.0,31.1,23.9,05.2,0000.0,0004.27,0006.87,0003.97
2022-03-10 10:20:00,,0822.6,4.99,0.00,22.3,22.9,00.0,31.1,24.2,05.1,0000.0,0004.27,0006.87,0003.98
2022-03-10 10:21:00,,0822.5,5.02,0.00,22.3,22.7,00.0,31.2,24.2,05.1,0000.0,0004.27,0006.84,0003.99
2022-03-10 10:22:00,,0822.5,4.98,0.00,22.3,22.4,00.0,31.2,24.2,05.1,0000.0,0004.25,0006.63,0004.00
2022-03-10 10:23:00,,0822.6,5.00,0.00,22.3,22.0,00.0,31.2,24.1,05.1,0000.0,0004.24,0006.60,0004.00
2022-03-10 10:24:00,,0822.7,5.00,0.00,22.3,21.8,00.0,31.2,24.0,05.1,0000.0,0004.27,0006.66,0004.01
2022-03-10 10:25:00,,0822.7,5.00,0.00,22.2,21.6,00.0,31.2,23.9,05.1,0000.0,0004.31,0006.83,0004.02
2022-03-10 10:26:00,,0822.7,5.01,0.00,22.2,21.4,00.0,31.2,23.9,05.1,0000.0,0004.30,0006.75,0004.03
2022-03-10 10:27:00,,0822.6,5.00,0.00,22.2,21.3,00.0,31.2,23.8,05.2,0000.0,0004.27,0006.56,0004.03
2022-03-10 10:28:00,,0822.7,4.99,0.00,22.1,21.2,00.0,31.1,23.8,05.2,0000.0,0004.28,0006.59,0004.02
2022-03-10 10:29:00,,0822.7,5.00,0.00,22.1,21.5,00.0,31.1,23.8,05.2,0000.0,0004.29,0006.08,0004.03
2022-03-10 10:30:00,,0822.7,5.01,0.00,22.2,22.3,00.0,31.2,24.0,05.1,0000.0,0004.29,0005.89,0004.03
2022-03-10 10:31:00,,0822.8,4.99,0.00,22.4,22.9,00.0,31.2,24.3,05.1,0000.0,0004.29,0006.08,0004.03
2022-03-10 10:32:00,,0822.7,5.00,0.00,22.5,22.9,00.0,31.3,24.4,05.1,0000.0,0004.29,0006.24,0004.03
2022-03-10 10:33:00,,0822.7,5.00,0.00,22.5,22.6,00.0,31.3,24.3,05.1,0000.0,0004.28,0006.24,0004.02
2022-03-10 10:34:00,,0822.7,4.99,0.00,22.4,22.2,00.0,31.3,24.2,05.1,0000.0,0004.29,0006.30,0004.02
2022-03-10 10:35:00,,0822.7,5.00,0.00,22.4,21.9,00.0,31.3,24.1,05.1,0000.0,0004.28,0007.10,0004.01
2022-03-10 10:36:00,,0822.7,5.00,0.00,22.3,21.7,00.0,31.3,24.1,05.1,0000.0,0004.24,0008.03,0004.00
2022-03-10 10:37:00,,0822.7,5.01,0.00,22.3,21.5,00.0,31.2,24.0,05.1,0000.0,0004.21,0008.04,0003.98
2022-03-10 10:38:00,,0822.7,5.01,0.00,22.3,21.4,00.0,31.2,23.9,05.1,0000.0,0004.21,0008.05,0003.98
2022-03-10 10:39:00,,0822.7,4.99,0.00,22.2,21.3,00.0,31.2,23.9,05.1,0000.0,0004.22,0008.08,0003.97
2022-03-10 10:40:00,,0822.7,5.00,0.00,22.2,21.4,00.0,31.2,23.8,05.1,0000.0,0004.20,0008.06,0003.96
2022-03-10 10:41:00,,0822.7,5.01,0.00,22.3,22.2,00.0,31.3,24.0,05.1,0000.0,0004.17,0007.98,0003.95
2022-03-10 10:42:00,,0822.7,5.00,0.00,22.4,22.9,00.0,31.3,24.3,05.1,0000.0,0004.16,0007.84,0003.94
2022-03-10 10:43:00,,0822.7,4.99,0.00,22.5,22.9,00.0,31.3,24.4,05.1,0000.0,0004.14,0007.85,0003.91
2022-03-10 10:44:00,,0822.6,5.01,0.00,22.5,22.6,00.0,31.3,24.4,05.1,0000.0,0004.13,0007.95,0003.90
2022-03-10 10:45:00,,0822.6,5.01,0.00,22.5,22.3,00.0,31.3,24.3,05.1,0000.0,0004.10,0007.86,0003.90
2022-03-10 10:46:00,,0822.7,5.00,0.00,22.4,22.0,00.0,31.3,24.2,05.1,0000.0,0004.10,0006.93,0003.90
2022-03-10 10:47:00,,0822.6,4.99,0.00,22.4,21.7,00.0,31.3,24.1,05.1,0000.0,0004.11,0005.81,0003.90
2022-03-10 10:48:00,,0822.7,4.99,0.00,22.4,21.5,00.0,31.3,24.0,05.1,0000.0,0004.13,0005.78,0003.90
2022-03-10 10:49:00,,0822.7,5.00,0.00,22.3,21.3,00.0,31.3,24.0,05.1,0000.0,0004.13,0005.89,0003.90
2022-03-10 10:50:00,,0822.7,5.00,0.00,22.3,21.2,00.0,31.3,23.9,05.1,0000.0,0004.13,0005.98,0003.90
2022-03-10 10:51:00,,0822.8,4.99,0.00,22.2,21.3,00.0,31.3,23.9,05.1,0000.0,0004.16,0006.09,0003.90
2022-03-10 10:52:00,,0822.7,5.00,0.00,22.3,22.0,00.0,31.3,24.0,05.1,0000.0,0004.16,0006.12,0003.90
2022-03-10 10:53:00,,0822.8,4.99,0.00,22.4,22.7,00.0,31.3,24.2,05.1,0000.0,0004.19,0006.26,0003.90
2022-03-10 10:54:00,,0822.8,5.01,0.00,22.5,23.0,00.0,31.4,24.4,05.1,0000.0,0004.21,0006.14,0003.91
2022-03-10 10:55:00,,0822.9,5.00,0.00,22.5,22.7,00.0,31.4,24.4,05.0,0000.0,0004.21,0005.95,0003.93
2022-03-10 10:56:00,,0822.9,5.00,0.00,22.5,22.4,00.0,31.4,24.3,05.0,0000.0,0004.22,0005.95,0003.93
2022-03-10 10:57:00,,0822.9,5.01,0.00,22.5,22.1,00.0,31.4,24.2,05.0,0000.0,0004.21,0005.87,0003.92
2022-03-10 10:58:00,,0822.8,5.00,0.00,22.4,21.8,00.0,31.4,24.1,05.1,0000.0,0004.22,0005.93,0003.94
2022-03-10 10:59:00,,0822.7,5.01,0.00,22.4,21.6,00.0,31.4,24.1,05.1,0000.0,0004.23,0006.81,0003.95
